| time (UTC) | temp F | wind direction | speed MPH | gust MPH | rain 1hr in | rain 24hr in | rain mn in | humidity % | barometer mb |
| 20260831020334 | 70 | 185 | 0.0 | 0.0 | 0.00 | 0.00 | 0.00 | 95 | 1019.3 |
| 20260831015329 | 70 | 186 | 0.0 | 0.0 | 0.00 | 0.00 | 0.00 | 95 | 1019.3 |
| 20260831014322 | 70 | 186 | 0.0 | 1.0 | 0.00 | 0.00 | 0.00 | 95 | 1019.1 |
| 20260831013316 | 70 | 219 | 0.0 | 1.0 | 0.00 | 0.00 | 0.00 | 95 | 1019.0 |
| 20260831012317 | 70 | 223 | 0.0 | 0.0 | 0.00 | 0.00 | 0.00 | 94 | 1019.1 |
| 20260831011335 | 70 | 223 | 0.0 | 0.0 | 0.00 | 0.00 | 0.00 | 94 | 1019.0 |
| 20260831010329 | 70 | 223 | 0.0 | 0.0 | 0.00 | 0.00 | 0.00 | 94 | 1018.9 |
| 20260831005326 | 70 | 223 | 0.0 | 0.0 | 0.00 | 0.00 | 0.00 | 93 | 1019.0 |
| 20260831004345 | 70 | 223 | 0.0 | 0.0 | 0.00 | 0.00 | 0.00 | 93 | 1018.9 |
| 20260831003318 | 70 | 223 | 0.0 | 0.0 | 0.00 | 0.00 | 0.00 | 92 | 1018.8 |
| 20260831002314 | 70 | 223 | 0.0 | 0.0 | 0.00 | 0.00 | 0.00 | 92 | 1018.7 |
| 20260831001332 | 71 | 223 | 0.0 | 0.0 | 0.00 | 0.00 | 0.00 | 92 | 1018.7 |
| 20260831000327 | 70 | 223 | 0.0 | 0.0 | 0.00 | 0.00 | 0.00 | 91 | 1018.7 |
| 20260830235316 | 71 | 223 | 0.0 | 0.0 | 0.00 | 0.00 | 0.00 | 90 | 1018.5 |
| 20260830234358 | 71 | 223 | 0.0 | 0.0 | 0.00 | 0.00 | 0.00 | 89 | 1018.5 |
| 20260830233329 | 71 | 223 | 0.0 | 0.0 | 0.00 | 0.00 | 0.00 | 89 | 1018.5 |
| 20260830232321 | 71 | 223 | 0.0 | 0.0 | 0.00 | 0.00 | 0.00 | 88 | 1018.5 |
| 20260830231317 | 72 | 223 | 0.0 | 0.0 | 0.00 | 0.00 | 0.00 | 88 | 1018.4 |
| 20260830230337 | 72 | 223 | 0.0 | 0.0 | 0.00 | 0.00 | 0.00 | 88 | 1018.4 |
| 20260830225328 | 72 | 223 | 0.0 | 1.0 | 0.00 | 0.00 | 0.00 | 88 | 1018.6 |
| 20260830224324 | 72 | 223 | 0.0 | 0.0 | 0.00 | 0.00 | 0.00 | 87 | 1018.7 |
| 20260830223317 | 73 | 223 | 0.0 | 0.0 | 0.00 | 0.00 | 0.00 | 86 | 1018.4 |
| 20260830222337 | 73 | 223 | 0.0 | 0.0 | 0.00 | 0.00 | 0.00 | 85 | 1018.6 |
| 20260830221329 | 73 | 223 | 0.0 | 0.0 | 0.00 | 0.00 | 0.00 | 84 | 1018.6 |
| 20260830220325 | 74 | 223 | 0.0 | 0.0 | 0.00 | 0.00 | 0.00 | 83 | 1018.6 |
| 20260830215320 | 74 | 223 | 0.0 | 0.0 | 0.00 | 0.00 | 0.00 | 82 | 1018.5 |
| 20260830214346 | 74 | 223 | 0.0 | 1.0 | 0.00 | 0.00 | 0.00 | 81 | 1018.5 |
| 20260830213316 | 74 | 223 | 0.0 | 1.0 | 0.00 | 0.00 | 0.00 | 82 | 1018.5 |
| 20260830212337 | 74 | 223 | 0.0 | 1.0 | 0.00 | 0.00 | 0.00 | 80 | 1018.5 |
| 20260830211330 | 75 | 223 | 0.0 | 1.0 | 0.00 | 0.00 | 0.00 | 80 | 1018.6 |
| 20260830210350 | 75 | 224 | 0.0 | 1.0 | 0.00 | 0.00 | 0.00 | 79 | 1018.7 |
| 20260830205324 | 75 | 221 | 0.0 | 1.0 | 0.00 | 0.00 | 0.00 | 79 | 1018.7 |
| 20260830204315 | 75 | 300 | 0.0 | 1.0 | 0.00 | 0.00 | 0.00 | 79 | 1018.9 |
| 20260830203333 | 75 | 300 | 0.0 | 1.0 | 0.00 | 0.00 | 0.00 | 78 | 1018.9 |
| 20260830202328 | 75 | 20 | 0.0 | 1.0 | 0.00 | 0.00 | 0.00 | 77 | 1018.9 |
| 20260830201322 | 75 | 319 | 0.0 | 1.0 | 0.00 | 0.00 | 0.00 | 77 | 1019.0 |
| 20260830200318 | 75 | 333 | 0.0 | 1.0 | 0.00 | 0.00 | 0.00 | 77 | 1018.9 |
| 20260830195312 | 75 | 333 | 0.0 | 0.0 | 0.00 | 0.00 | 0.00 | 76 | 1019.0 |
| 20260830194323 | 75 | 333 | 0.0 | 0.0 | 0.00 | 0.00 | 0.00 | 76 | 1019.1 |
| 20260830193318 | 75 | 331 | 0.0 | 1.0 | 0.00 | 0.00 | 0.00 | 74 | 1019.3 |
| 20260830192336 | 75 | 336 | 0.0 | 0.0 | 0.00 | 0.00 | 0.00 | 73 | 1019.3 |
| 20260830191330 | 76 | 328 | 0.0 | 1.0 | 0.00 | 0.00 | 0.00 | 71 | 1019.5 |
| 20260830190325 | 76 | 290 | 0.0 | 1.0 | 0.00 | 0.00 | 0.00 | 69 | 1019.7 |
| 20260830185320 | 78 | 224 | 0.0 | 1.0 | 0.00 | 0.00 | 0.00 | 66 | 1019.9 |
| 20260830184342 | 79 | 293 | 0.0 | 1.0 | 0.00 | 0.00 | 0.00 | 65 | 1020.0 |
| 20260830183318 | 79 | 140 | 0.0 | 3.0 | 0.00 | 0.00 | 0.00 | 63 | 1020.2 |
| 20260830182327 | 79 | 313 | 1.0 | 3.0 | 0.00 | 0.00 | 0.00 | 62 | 1020.1 |
| 20260830181321 | 78 | 147 | 0.0 | 2.0 | 0.00 | 0.00 | 0.00 | 65 | 1020.2 |
| 20260830180315 | 79 | 332 | 0.0 | 2.0 | 0.00 | 0.00 | 0.00 | 65 | 1020.3 |
| 20260830175333 | 78 | 139 | 0.0 | 2.0 | 0.00 | 0.00 | 0.00 | 66 | 1020.2 |
| 20260830174332 | 79 | 31 | 0.0 | 2.0 | 0.00 | 0.00 | 0.00 | 67 | 1020.1 |
| 20260830173324 | 79 | 144 | 0.0 | 2.0 | 0.00 | 0.00 | 0.00 | 66 | 1020.4 |
| 20260830172319 | 78 | 147 | 0.0 | 3.0 | 0.00 | 0.00 | 0.00 | 67 | 1020.5 |
| 20260830170321 | 78 | 131 | 1.0 | 2.0 | 0.00 | 0.00 | 0.00 | 63 | 1020.6 |
| 20260830165315 | 78 | 125 | 0.0 | 1.0 | 0.00 | 0.00 | 0.00 | 64 | 1020.7 |
| 20260830164336 | 78 | 20 | 0.0 | 2.0 | 0.00 | 0.00 | 0.00 | 66 | 1020.7 |
| 20260830163329 | 77 | 359 | 0.0 | 2.0 | 0.00 | 0.00 | 0.00 | 65 | 1020.8 |
| 20260830162322 | 77 | 329 | 0.0 | 2.0 | 0.00 | 0.00 | 0.00 | 64 | 1021.0 |
| 20260830161329 | 76 | 137 | 0.0 | 2.0 | 0.00 | 0.00 | 0.00 | 66 | 1021.1 |
| 20260830160322 | 76 | 158 | 0.0 | 1.0 | 0.00 | 0.00 | 0.00 | 66 | 1021.2 |
| 20260830155318 | 76 | 61 | 0.0 | 1.0 | 0.00 | 0.00 | 0.00 | 68 | 1021.3 |
| 20260830154335 | 75 | 343 | 0.0 | 1.0 | 0.00 | 0.00 | 0.00 | 66 | 1021.3 |
| 20260830153353 | 75 | 272 | 0.0 | 2.0 | 0.00 | 0.00 | 0.00 | 66 | 1021.4 |
| 20260830152326 | 75 | 15 | 0.0 | 5.0 | 0.00 | 0.00 | 0.00 | 65 | 1021.4 |
| 20260830151318 | 74 | 131 | 0.0 | 1.0 | 0.00 | 0.00 | 0.00 | 67 | 1021.8 |
| 20260830150337 | 74 | 30 | 0.0 | 1.0 | 0.00 | 0.00 | 0.00 | 68 | 1021.8 |
| 20260830145331 | 73 | 332 | 0.0 | 2.0 | 0.00 | 0.00 | 0.00 | 71 | 1021.9 |
| 20260830144331 | 71 | 115 | 0.0 | 1.0 | 0.00 | 0.00 | 0.00 | 75 | 1021.9 |
| 20260830143323 | 70 | 71 | 0.0 | 0.0 | 0.00 | 0.00 | 0.00 | 81 | 1022.0 |
| 20260830142316 | 69 | 46 | 0.0 | 1.0 | 0.00 | 0.00 | 0.00 | 83 | 1022.0 |
| 20260830141337 | 68 | 344 | 0.0 | 1.0 | 0.00 | 0.00 | 0.00 | 82 | 1022.2 |
| 20260830140332 | 67 | 344 | 0.0 | 1.0 | 0.00 | 0.00 | 0.00 | 86 | 1022.2 |
| 20260830135322 | 66 | 344 | 0.0 | 1.0 | 0.00 | 0.00 | 0.00 | 87 | 1022.2 |
| 20260830134343 | 65 | 344 | 0.0 | 0.0 | 0.00 | 0.00 | 0.00 | 86 | 1022.2 |
| 20260830133312 | 64 | 344 | 0.0 | 0.0 | 0.00 | 0.00 | 0.00 | 88 | 1022.2 |
| 20260830132352 | 64 | 344 | 0.0 | 0.0 | 0.00 | 0.00 | 0.00 | 90 | 1022.3 |
| 20260830131323 | 63 | 344 | 0.0 | 0.0 | 0.00 | 0.00 | 0.00 | 90 | 1022.5 |
| 20260830130314 | 62 | 344 | 0.0 | 0.0 | 0.00 | 0.00 | 0.00 | 94 | 1022.6 |
| 20260830125324 | 61 | 344 | 0.0 | 0.0 | 0.00 | 0.00 | 0.00 | 96 | 1022.6 |
| 20260830124334 | 60 | 344 | 0.0 | 0.0 | 0.00 | 0.00 | 0.00 | 96 | 1022.6 |
| 20260830123330 | 60 | 344 | 0.0 | 0.0 | 0.00 | 0.00 | 0.00 | 97 | 1022.7 |
| 20260830122322 | 60 | 344 | 0.0 | 0.0 | 0.00 | 0.00 | 0.00 | 97 | 1022.9 |
| 20260830121317 | 59 | 344 | 0.0 | 0.0 | 0.00 | 0.00 | 0.00 | 97 | 1023.0 |
| 20260830120324 | 59 | 344 | 0.0 | 0.0 | 0.00 | 0.00 | 0.00 | 97 | 1023.0 |
| 20260830115319 | 58 | 344 | 0.0 | 0.0 | 0.00 | 0.00 | 0.00 | 97 | 1023.1 |
| 20260830114338 | 58 | 344 | 0.0 | 0.0 | 0.00 | 0.00 | 0.00 | 97 | 1022.9 |
| 20260830113347 | 58 | 344 | 0.0 | 0.0 | 0.00 | 0.00 | 0.00 | 97 | 1022.9 |
| 20260830112319 | 57 | 344 | 0.0 | 0.0 | 0.00 | 0.00 | 0.00 | 97 | 1022.9 |
| 20260830111312 | 57 | 344 | 0.0 | 0.0 | 0.00 | 0.00 | 0.00 | 97 | 1022.9 |
| 20260830110333 | 56 | 344 | 0.0 | 0.0 | 0.00 | 0.00 | 0.00 | 96 | 1022.9 |
| 20260830105330 | 56 | 344 | 0.0 | 0.0 | 0.00 | 0.00 | 0.00 | 96 | 1022.9 |
| 20260830104321 | 56 | 344 | 0.0 | 0.0 | 0.00 | 0.00 | 0.00 | 96 | 1022.7 |
| 20260830103313 | 56 | 344 | 0.0 | 0.0 | 0.00 | 0.00 | 0.00 | 96 | 1022.7 |
| 20260830102354 | 56 | 344 | 0.0 | 0.0 | 0.00 | 0.00 | 0.00 | 96 | 1022.7 |
| 20260830101328 | 56 | 344 | 0.0 | 0.0 | 0.00 | 0.00 | 0.00 | 96 | 1022.8 |
| 20260830100319 | 55 | 344 | 0.0 | 0.0 | 0.00 | 0.00 | 0.00 | 96 | 1022.7 |
| 20260830095314 | 56 | 344 | 0.0 | 0.0 | 0.00 | 0.00 | 0.00 | 96 | 1022.8 |
| 20260830094312 | 56 | 344 | 0.0 | 1.0 | 0.00 | 0.00 | 0.00 | 96 | 1022.8 |
| 20260830093332 | 55 | 344 | 0.0 | 0.0 | 0.00 | 0.00 | 0.00 | 96 | 1022.9 |
| 20260830092324 | 55 | 344 | 0.0 | 0.0 | 0.00 | 0.00 | 0.00 | 96 | 1022.9 |
| 20260830091316 | 55 | 344 | 0.0 | 0.0 | 0.00 | 0.00 | 0.00 | 96 | 1022.9 |
| 20260830090333 | 55 | 344 | 0.0 | 0.0 | 0.00 | 0.00 | 0.00 | 96 | 1023.1 |
| 20260830085331 | 55 | 344 | 0.0 | 0.0 | 0.00 | 0.00 | 0.00 | 96 | 1023.0 |
| 20260830084323 | 55 | 344 | 0.0 | 0.0 | 0.00 | 0.00 | 0.00 | 96 | 1022.9 |
| 20260830083317 | 55 | 344 | 0.0 | 0.0 | 0.00 | 0.00 | 0.00 | 96 | 1023.0 |
| 20260830082312 | 55 | 344 | 0.0 | 0.0 | 0.00 | 0.00 | 0.00 | 96 | 1023.1 |
| 20260830081331 | 55 | 344 | 0.0 | 0.0 | 0.00 | 0.00 | 0.00 | 96 | 1023.1 |
| 20260830080326 | 55 | 344 | 0.0 | 0.0 | 0.00 | 0.00 | 0.00 | 96 | 1023.1 |
| 20260830075323 | 55 | 344 | 0.0 | 0.0 | 0.00 | 0.00 | 0.00 | 96 | 1023.1 |
| 20260830074316 | 55 | 344 | 0.0 | 0.0 | 0.00 | 0.00 | 0.00 | 96 | 1023.1 |
| 20260830073334 | 55 | 344 | 0.0 | 0.0 | 0.00 | 0.00 | 0.00 | 96 | 1023.0 |
| 20260830072328 | 55 | 344 | 0.0 | 0.0 | 0.00 | 0.00 | 0.00 | 95 | 1022.9 |
| 20260830071323 | 55 | 344 | 0.0 | 0.0 | 0.00 | 0.00 | 0.00 | 95 | 1023.0 |
| 20260830070320 | 55 | 344 | 0.0 | 0.0 | 0.00 | 0.00 | 0.00 | 95 | 1023.1 |
| 20260830065311 | 55 | 344 | 0.0 | 0.0 | 0.00 | 0.00 | 0.00 | 95 | 1023.1 |
| 20260830064332 | 55 | 344 | 0.0 | 0.0 | 0.00 | 0.00 | 0.00 | 95 | 1023.2 |
| 20260830063327 | 55 | 344 | 0.0 | 0.0 | 0.00 | 0.00 | 0.00 | 95 | 1023.1 |
| 20260830062319 | 55 | 344 | 0.0 | 0.0 | 0.00 | 0.00 | 0.00 | 95 | 1023.1 |
| 20260830061313 | 55 | 344 | 0.0 | 0.0 | 0.00 | 0.00 | 0.00 | 95 | 1023.1 |
| 20260830060338 | 55 | 344 | 0.0 | 0.0 | 0.00 | 0.00 | 0.00 | 94 | 1022.9 |
| 20260830055357 | 55 | 344 | 0.0 | 0.0 | 0.00 | 0.00 | 0.00 | 95 | 1022.9 |
| 20260830054331 | 55 | 344 | 0.0 | 0.0 | 0.00 | 0.00 | 0.00 | 94 | 1022.7 |
| 20260830053328 | 55 | 344 | 0.0 | 0.0 | 0.00 | 0.00 | 0.00 | 94 | 1022.8 |
| 20260830052322 | 55 | 344 | 0.0 | 0.0 | 0.00 | 0.00 | 0.00 | 94 | 1022.9 |
| 20260830051316 | 55 | 344 | 0.0 | 0.0 | 0.00 | 0.00 | 0.00 | 94 | 1023.0 |
| 20260830050336 | 55 | 344 | 0.0 | 0.0 | 0.00 | 0.00 | 0.00 | 94 | 1023.0 |
| 20260830045328 | 55 | 344 | 0.0 | 0.0 | 0.00 | 0.00 | 0.00 | 94 | 1023.1 |
| 20260830044328 | 55 | 344 | 0.0 | 0.0 | 0.00 | 0.00 | 0.00 | 93 | 1023.1 |
| 20260830043337 | 56 | 344 | 0.0 | 0.0 | 0.00 | 0.00 | 0.00 | 94 | 1023.0 |
| 20260830042337 | 56 | 344 | 0.0 | 0.0 | 0.00 | 0.00 | 0.00 | 93 | 1023.1 |
| 20260830041349 | 56 | 344 | 0.0 | 0.0 | 0.00 | 0.00 | 0.00 | 93 | 1023.0 |
| 20260830040319 | 56 | 344 | 0.0 | 0.0 | 0.00 | 0.00 | 0.00 | 93 | 1023.0 |
| 20260830035341 | 56 | 344 | 0.0 | 0.0 | 0.00 | 0.00 | 0.00 | 93 | 1023.0 |
| 20260830034359 | 56 | 344 | 0.0 | 0.0 | 0.00 | 0.00 | 0.00 | 93 | 1022.9 |
| 20260830033330 | 56 | 344 | 0.0 | 0.0 | 0.00 | 0.00 | 0.00 | 92 | 1023.0 |
| 20260830032322 | 56 | 344 | 0.0 | 0.0 | 0.00 | 0.00 | 0.00 | 92 | 1023.0 |
| 20260830031318 | 56 | 344 | 0.0 | 0.0 | 0.00 | 0.00 | 0.00 | 92 | 1022.9 |
| 20260830030336 | 57 | 344 | 0.0 | 0.0 | 0.00 | 0.00 | 0.00 | 92 | 1023.1 |
| 20260830025328 | 57 | 344 | 0.0 | 0.0 | 0.00 | 0.00 | 0.00 | 92 | 1023.0 |
| 20260830024349 | 57 | 344 | 0.0 | 0.0 | 0.00 | 0.00 | 0.00 | 92 | 1022.8 |
| 20260830023345 | 57 | 344 | 0.0 | 0.0 | 0.00 | 0.00 | 0.00 | 91 | 1022.9 |
| 20260830022319 | 57 | 344 | 0.0 | 0.0 | 0.00 | 0.00 | 0.00 | 91 | 1022.9 |
| 20260830021312 | 58 | 344 | 0.0 | 0.0 | 0.00 | 0.00 | 0.00 | 90 | 1023.0 |